Zurück zum Katalog

THOR ABLESTAR DEB

AktivLEO
NORAD 260·DEBRIS·🇺🇸 United States

Gestartet Jun 29, 1961 von Cape Canaveral Space Force Station

Loading…

Nächste Überflüge (nächste 24 Stunden)

TLE

AktuellSource: Space-Track

Epoche: Sep 9, 2026, 16:18 UTC

1 00260U 61015CG  26252.67962366  .00000847  00000-0  26842-3 0  9997
2 00260  66.7683 335.4253 0036231  49.5723 310.8534 14.44532005368544

Verfolge THOR ABLESTAR DEB in Echtzeit mit AllMySat

Download on the App Store